Find Starlink 3183

NORAD ID: 51134 Int'l Des: 2022-005 Owner: SPXS Country: US Constellation: starlink decayed
LEOCIRCULAR
Vis

Historical Track — 16. Nov. 2025

3D-Globus wird geladen...

Über Starlink 3183

Beschreibung wird geladen...

Höhenverlauf

Loading altitude history...

Zweizeiliger Elementsatz

1 51134U 22005AG 25320.26910508 .09743751 12304-4 10607-2 0 9992
2 51134 53.2019 61.5493 0004580 311.9032 48.1624 16.36552487211994
Epoch: 16. Nov. 2025 • Age: 4194 hours

Aktueller Status

Position data unavailable
Startdatum 19. Jan. 2022
Alter 4.3 years
Verglühungsdatum 16. Nov. 2025
Typ internet

Technische Details

Klassifizierung Payload
Masse 297.00 kg
Trockenmasse 275.00 kg
Gesamtmasse 297.00 kg
Länge 0.20 m
Durchmesser 2.80 m
Spannweite 9.00 m
Form Box + pan
Hersteller SPXS
Bus-Typ Starlink
Phasenstatus Reentered
Besitzer/Staat SPXS/US

Most Searched